This is the latest recevied weather packets stored in our database for station/object DB0SVX. If no packets are shown the sender has not sent any weather packets the latest 10 day(s).
| Time | Temp. | Humidity | Pressure | Rain* | Wind** | Luminosity | Snow |
|---|---|---|---|---|---|---|---|
| 1777766120 | 8.89° C | 51% | 1015.2 hPa | 0 mm | - | - | - |
| 1777765220 | 9.44° C | 51% | 1015 hPa | 0 mm | - | - | - |
| 1777764320 | 9.44° C | 52% | 1015 hPa | 0 mm | - | - | - |
| 1777763420 | 10° C | 52% | 1015.2 hPa | 0 mm | - | - | - |
| 1777762520 | 10° C | 52% | 1015.2 hPa | 0 mm | - | - | - |
| 1777761620 | 10° C | 52% | 1015.2 hPa | 0 mm | - | - | - |
| 1777760720 | 10° C | 52% | 1015.5 hPa | 0 mm | - | - | - |
| 1777759820 | 10.56° C | 51% | 1015.4 hPa | 0 mm | - | - | - |
| 1777758920 | 10.56° C | 51% | 1015.4 hPa | 0 mm | - | - | - |
| 1777758020 | 11.11° C | 50% | 1015.4 hPa | 0 mm | - | - | - |
| 1777757120 | 11.67° C | 50% | 1015.4 hPa | 0 mm | - | - | - |
| 1777756220 | 12.22° C | 49% | 1015.5 hPa | 0 mm | - | - | - |
| 1777755320 | 12.78° C | 48% | 1015.5 hPa | 0 mm | - | - | - |
| 1777754420 | 12.78° C | 47% | 1015.7 hPa | 0 mm | - | - | - |
| 1777753520 | 13.33° C | 46% | 1015.9 hPa | 0 mm | - | - | - |
| 1777752620 | 13.89° C | 45% | 1015.9 hPa | 0 mm | - | - | - |
| 1777751720 | 13.89° C | 44% | 1016 hPa | 0 mm | - | - | - |
| 1777750820 | 14.44° C | 42% | 1016 hPa | 0 mm | - | - | - |
| 1777749920 | 15° C | 41% | 1016 hPa | 0 mm | - | - | - |
| 1777749020 | 15.56° C | 39% | 1015.9 hPa | 0 mm | - | - | - |
| 1777748120 | 16.67° C | 36% | 1015.7 hPa | 0 mm | - | - | - |
| 1777747220 | 17.78° C | 34% | 1015.5 hPa | 0 mm | - | - | - |
| 1777746320 | 18.89° C | 32% | 1015.7 hPa | 0 mm | - | - | - |
| 1777745420 | 20.56° C | 30% | 1015.5 hPa | 0 mm | - | - | - |
| 1777744520 | 22.78° C | 28% | 1015.5 hPa | 0 mm | - | - | - |
* Rain latest hour (hover to see other rain measurements)
** Current wind speed in m/s (hover to see current wind gust speed)